| time (UTC) | temp C | wind direction | speed KPH | gust KPH | rain 1hr cm | rain 24hr cm | rain mn cm | humidity % | barometer mb |
| 20260507211537 | 10 | 0 | 0.0 | 0.0 | 0.00 | 0.03 | 0.03 | 84 | 1014.8 |
| 20260507210039 | 10 | 0 | 0.0 | 0.0 | 0.00 | 0.03 | 0.03 | 83 | 1014.8 |
| 20260507204548 | 10 | 0 | 0.0 | 0.0 | 0.00 | 0.03 | 0.03 | 82 | 1015.0 |
| 20260507203038 | 11 | 0 | 0.0 | 0.0 | 0.00 | 0.03 | 0.03 | 82 | 1014.6 |
| 20260507201540 | 11 | 0 | 0.0 | 0.0 | 0.00 | 0.03 | 0.03 | 80 | 1014.4 |
| 20260507200039 | 12 | 0 | 0.0 | 0.0 | 0.00 | 0.03 | 0.03 | 78 | 1014.1 |
| 20260507194534 | 12 | 0 | 0.0 | 0.0 | 0.00 | 0.03 | 0.03 | 76 | 1013.9 |
| 20260507193038 | 13 | 0 | 0.0 | 0.0 | 0.00 | 0.03 | 0.03 | 72 | 1013.5 |
| 20260507191537 | 15 | 0 | 0.0 | 4.8 | 0.00 | 0.03 | 0.03 | 66 | 1013.6 |
| 20260507190040 | 15 | 340 | 6.4 | 11.3 | 0.00 | 0.03 | 0.03 | 64 | 1013.5 |
| 20260507184538 | 16 | 344 | 6.4 | 12.9 | 0.00 | 0.03 | 0.03 | 62 | 1013.3 |
| 20260507183037 | 16 | 20 | 4.8 | 16.1 | 0.00 | 0.03 | 0.03 | 61 | 1013.3 |
| 20260507181537 | 16 | 23 | 8.0 | 16.1 | 0.00 | 0.03 | 0.03 | 60 | 1013.1 |
| 20260507180040 | 16 | 348 | 8.0 | 17.7 | 0.00 | 0.03 | 0.03 | 58 | 1013.1 |
| 20260507174540 | 16 | 20 | 8.0 | 16.1 | 0.00 | 0.03 | 0.03 | 58 | 1013.1 |
| 20260507173036 | 16 | 16 | 11.3 | 16.1 | 0.00 | 0.03 | 0.03 | 58 | 1013.0 |
| 20260507171534 | 17 | 30 | 9.7 | 17.7 | 0.00 | 0.03 | 0.03 | 53 | 1013.1 |
| 20260507170039 | 17 | 30 | 9.7 | 17.7 | 0.00 | 0.03 | 0.03 | 50 | 1013.0 |
| 20260507164538 | 17 | 11 | 9.7 | 17.7 | 0.00 | 0.05 | 0.03 | 49 | 1013.1 |
| 20260507163034 | 17 | 20 | 11.3 | 20.9 | 0.00 | 0.05 | 0.03 | 48 | 1013.1 |
| 20260507161535 | 17 | 27 | 11.3 | 20.9 | 0.00 | 0.05 | 0.03 | 48 | 1013.1 |
| 20260507160038 | 17 | 25 | 11.3 | 20.9 | 0.00 | 0.05 | 0.03 | 47 | 1013.0 |
| 20260507154540 | 18 | 349 | 12.9 | 20.9 | 0.00 | 0.05 | 0.03 | 46 | 1013.0 |
| 20260507153046 | 18 | 51 | 12.9 | 20.9 | 0.00 | 0.05 | 0.03 | 47 | 1013.1 |
| 20260507151539 | 18 | 10 | 12.9 | 20.9 | 0.00 | 0.05 | 0.03 | 45 | 1013.1 |
| 20260507150037 | 18 | 356 | 11.3 | 22.5 | 0.00 | 0.05 | 0.03 | 44 | 1013.1 |
| 20260507144534 | 17 | 333 | 12.9 | 20.9 | 0.00 | 0.05 | 0.03 | 44 | 1013.2 |
| 20260507143037 | 18 | 353 | 12.9 | 22.5 | 0.00 | 0.05 | 0.03 | 44 | 1013.2 |
| 20260507141538 | 18 | 347 | 11.3 | 22.5 | 0.00 | 0.05 | 0.03 | 46 | 1013.3 |
| 20260507140052 | 17 | 21 | 11.3 | 24.1 | 0.00 | 0.05 | 0.03 | 46 | 1013.5 |
| 20260507134535 | 17 | 354 | 14.5 | 24.1 | 0.00 | 0.05 | 0.03 | 47 | 1013.5 |
| 20260507133035 | 17 | 21 | 12.9 | 19.3 | 0.00 | 0.05 | 0.03 | 50 | 1013.6 |
| 20260507131539 | 17 | 357 | 12.9 | 22.5 | 0.00 | 0.05 | 0.03 | 50 | 1013.8 |
| 20260507130049 | 17 | 353 | 12.9 | 22.5 | 0.00 | 0.05 | 0.03 | 52 | 1013.8 |
| 20260507124541 | 16 | 27 | 14.5 | 25.7 | 0.00 | 0.05 | 0.03 | 54 | 1013.8 |
| 20260507123051 | 16 | 7 | 16.1 | 24.1 | 0.00 | 0.05 | 0.03 | 59 | 1014.0 |
| 20260507121541 | 16 | 14 | 14.5 | 24.1 | 0.00 | 0.05 | 0.03 | 60 | 1013.9 |
| 20260507120034 | 16 | 15 | 12.9 | 22.5 | 0.00 | 0.05 | 0.03 | 58 | 1013.8 |
| 20260507114543 | 16 | 22 | 14.5 | 22.5 | 0.00 | 0.05 | 0.03 | 61 | 1013.7 |
| 20260507113038 | 16 | 345 | 11.3 | 20.9 | 0.00 | 0.05 | 0.03 | 64 | 1013.9 |
| 20260507111535 | 16 | 320 | 12.9 | 20.9 | 0.00 | 0.05 | 0.03 | 63 | 1014.0 |
| 20260507110036 | 16 | 347 | 11.3 | 20.9 | 0.00 | 0.05 | 0.03 | 63 | 1014.0 |
| 20260507104534 | 16 | 351 | 12.9 | 22.5 | 0.00 | 0.05 | 0.03 | 65 | 1014.1 |
| 20260507103033 | 16 | 338 | 11.3 | 19.3 | 0.00 | 0.05 | 0.03 | 67 | 1014.2 |
| 20260507101544 | 16 | 322 | 9.7 | 19.3 | 0.00 | 0.05 | 0.03 | 67 | 1014.2 |
| 20260507100037 | 16 | 344 | 11.3 | 19.3 | 0.00 | 0.05 | 0.03 | 68 | 1014.4 |
| 20260507094536 | 15 | 359 | 8.0 | 16.1 | 0.00 | 0.23 | 0.03 | 72 | 1014.2 |
| 20260507093038 | 15 | 312 | 8.0 | 16.1 | 0.00 | 0.23 | 0.03 | 71 | 1014.3 |
| 20260507091537 | 15 | 330 | 8.0 | 14.5 | 0.00 | 0.23 | 0.03 | 71 | 1014.5 |
| 20260507090038 | 15 | 309 | 6.4 | 12.9 | 0.00 | 0.23 | 0.03 | 72 | 1014.5 |
| 20260507084536 | 14 | 338 | 4.8 | 9.7 | 0.00 | 0.71 | 0.03 | 69 | 1014.5 |
| 20260507083041 | 13 | 23 | 4.8 | 8.0 | 0.00 | 0.71 | 0.03 | 76 | 1014.5 |
| 20260507081537 | 13 | 94 | 1.6 | 4.8 | 0.00 | 0.71 | 0.03 | 80 | 1014.4 |
| 20260507080047 | 12 | 82 | 4.8 | 6.4 | 0.00 | 0.71 | 0.03 | 80 | 1014.5 |
| 20260507074543 | 12 | 88 | 1.6 | 4.8 | 0.00 | 0.84 | 0.03 | 80 | 1014.3 |
| 20260507073035 | 12 | 83 | 3.2 | 4.8 | 0.00 | 0.84 | 0.03 | 83 | 1014.6 |
| 20260507071552 | 11 | 86 | 3.2 | 6.4 | 0.00 | 0.84 | 0.03 | 86 | 1014.4 |
| 20260507070039 | 12 | 179 | 0.0 | 3.2 | 0.00 | 0.84 | 0.03 | 91 | 1014.5 |
| 20260507064540 | 11 | 0 | 0.0 | 0.0 | 0.00 | 0.84 | 0.03 | 95 | 1014.5 |
| 20260507063039 | 9 | 0 | 0.0 | 0.0 | 0.00 | 0.84 | 0.03 | 95 | 1014.7 |
| 20260507061536 | 8 | 0 | 0.0 | 0.0 | 0.00 | 0.84 | 0.03 | 95 | 1014.6 |
| 20260507060035 | 8 | 0 | 0.0 | 0.0 | 0.00 | 0.84 | 0.03 | 95 | 1014.6 |
| 20260507054536 | 9 | 0 | 0.0 | 0.0 | 0.00 | 0.84 | 0.03 | 95 | 1014.6 |
| 20260507053041 | 8 | 0 | 0.0 | 0.0 | 0.00 | 0.84 | 0.03 | 95 | 1014.5 |
| 20260507051532 | 8 | 159 | 0.0 | 1.6 | 0.00 | 0.84 | 0.03 | 95 | 1014.4 |
| 20260507050037 | 8 | 0 | 0.0 | 0.0 | 0.00 | 0.84 | 0.03 | 95 | 1014.2 |
| 20260507044533 | 8 | 0 | 0.0 | 1.6 | 0.00 | 0.84 | 0.03 | 95 | 1014.0 |
| 20260507043040 | 8 | 0 | 0.0 | 0.0 | 0.00 | 0.84 | 0.03 | 95 | 1013.8 |
| 20260507041538 | 8 | 0 | 0.0 | 0.0 | 0.00 | 0.84 | 0.03 | 95 | 1013.6 |
| 20260507040045 | 8 | 0 | 0.0 | 0.0 | 0.00 | 0.84 | 0.03 | 95 | 1013.5 |
| 20260507034535 | 8 | 0 | 0.0 | 0.0 | 0.00 | 0.84 | 0.03 | 94 | 1013.6 |
| 20260507033043 | 8 | 0 | 0.0 | 0.0 | 0.00 | 0.84 | 0.03 | 94 | 1013.3 |
| 20260507031538 | 8 | 0 | 0.0 | 0.0 | 0.00 | 0.84 | 0.03 | 94 | 1013.5 |
| 20260507030039 | 8 | 0 | 0.0 | 0.0 | 0.00 | 0.84 | 0.03 | 94 | 1013.5 |
| 20260507024537 | 8 | 0 | 0.0 | 0.0 | 0.00 | 0.84 | 0.03 | 94 | 1013.4 |
| 20260507023036 | 8 | 0 | 0.0 | 1.6 | 0.00 | 0.84 | 0.03 | 94 | 1013.5 |
| 20260507021535 | 8 | 123 | 0.0 | 3.2 | 0.00 | 0.84 | 0.03 | 94 | 1013.3 |
| 20260507020034 | 8 | 0 | 0.0 | 3.2 | 0.00 | 0.84 | 0.03 | 94 | 1013.3 |
| 20260507014532 | 9 | 0 | 0.0 | 4.8 | 0.00 | 0.84 | 0.03 | 94 | 1013.3 |
| 20260507013040 | 9 | 160 | 0.0 | 0.0 | 0.00 | 0.84 | 0.03 | 94 | 1013.4 |
| 20260507011539 | 9 | 0 | 0.0 | 3.2 | 0.00 | 0.84 | 0.03 | 94 | 1013.4 |
| 20260507010036 | 9 | 0 | 0.0 | 4.8 | 0.03 | 0.84 | 0.03 | 94 | 1013.4 |
| 20260507004533 | 9 | 0 | 0.0 | 0.0 | 0.00 | 0.81 | 0.00 | 94 | 1013.6 |
| 20260507003031 | 9 | 0 | 0.0 | 6.4 | 0.00 | 0.81 | 0.00 | 94 | 1013.5 |
| 20260507001546 | 9 | 0 | 0.0 | 1.6 | 0.00 | 0.81 | 0.00 | 94 | 1013.7 |
| 20260507000031 | 9 | 0 | 0.0 | 0.0 | 0.00 | 0.79 | 0.00 | 94 | 1013.6 |
| 20260506234543 | 9 | 0 | 0.0 | 1.6 | 0.00 | 0.79 | 0.00 | 94 | 1013.3 |
| 20260506233034 | 8 | 0 | 0.0 | 0.0 | 0.00 | 0.79 | 0.00 | 94 | 1013.2 |
| 20260506231537 | 8 | 0 | 0.0 | 0.0 | 0.00 | 0.79 | 0.00 | 94 | 1013.2 |
| 20260506230035 | 8 | 0 | 0.0 | 0.0 | 0.00 | 0.79 | 0.00 | 93 | 1013.1 |
| 20260506224538 | 8 | 0 | 0.0 | 0.0 | 0.00 | 0.81 | 0.00 | 93 | 1012.9 |
| 20260506223036 | 8 | 0 | 0.0 | 0.0 | 0.00 | 0.81 | 0.00 | 93 | 1012.7 |
| 20260506221535 | 8 | 0 | 0.0 | 1.6 | 0.00 | 0.81 | 0.00 | 93 | 1012.8 |
| 20260506220039 | 8 | 0 | 0.0 | 0.0 | 0.00 | 0.81 | 0.00 | 93 | 1012.7 |
| 20260506214539 | 8 | 0 | 0.0 | 0.0 | 0.00 | 0.81 | 0.81 | 92 | 1012.9 |
| 20260506213038 | 9 | 0 | 0.0 | 3.2 | 0.00 | 0.81 | 0.81 | 92 | 1012.8 |